Theta_e
343 344 346 348 353 353 355 352 353 355 353 352 350 352 353 353 353 355 354 351 352 353 353 352 352 348 348 346 345 344 342 342 341 342 342 341 338 338 336 336 337 338 338
343 344 346 347 351 354 355 356 355 355 357 353 353 354 355 356 356 356 356 357 352 352 353 352 347 343 344 345 345 345 344 344 344 343 342 343 342 342 341 340 338 337 338
344 346 348 350 352 352 353 355 351 353 355 357 354 356 355 353 354 357 357 355 356 353 348 344 343 342 342 346 345 347 347 344 343 343 343 343 343 342 342 342 342 338 338
345 346 349 350 352 353 357 357 357 358 358 356 357 354 353 351 352 351 353 353 355 357 351 343 342 343 342 342 343 344 344 344 344 344 344 343 343 343 343 343 342 341 339
347 346 349 352 350 354 355 356 357 356 356 355 354 353 351 350 351 353 355 356 353 353 354 350 342 344 344 343 344 344 346 344 345 345 345 344 344 344 344 344 343 342 342
346 346 349 348 352 354 355 357 352 355 355 355 353 354 356 354 352 352 352 354 355 353 353 354 349 349 345 346 345 346 344 340 340 342 342 342 341 341 343 344 344 343 343
347 346 351 350 352 355 354 353 355 356 355 355 355 354 354 354 353 351 350 352 353 353 354 354 352 350 350 346 347 346 345 341 339 339 338 337 337 337 339 339 340 341 342
347 348 348 350 353 355 358 353 354 354 353 353 354 354 353 352 348 348 348 348 351 351 350 353 354 353 352 352 353 347 346 344 339 336 337 336 336 335 335 333 332 332 333
347 346 346 347 349 350 356 357 355 355 354 355 354 353 355 353 351 348 346 347 348 349 350 349 351 355 354 354 353 349 347 347 344 338 334 335 336 336 336 333 331 328 327
348 348 347 346 348 353 355 357 356 354 354 353 354 353 352 352 353 355 348 346 347 347 349 348 348 349 348 356 355 353 350 348 348 344 339 336 336 336 336 336 333 328 325
347 346 348 347 347 350 352 354 354 353 353 353 354 354 352 353 352 352 354 352 349 345 344 346 345 346 349 353 352 353 351 350 349 348 344 342 341 339 338 338 337 330 325
349 341 349 351 348 352 353 353 355 354 353 353 353 353 353 352 353 351 352 352 353 352 351 346 346 345 346 348 350 349 350 350 350 350 348 346 344 342 342 345 337 331 326
349 348 346 349 353 350 349 353 355 356 355 354 353 352 352 352 352 351 351 350 353 352 350 349 351 352 350 349 351 348 351 351 351 351 350 349 348 346 344 343 341 334 328
350 347 349 349 349 350 351 356 358 358 359 356 354 354 352 350 352 353 351 353 354 352 351 349 348 351 352 351 354 352 354 351 351 351 351 351 351 350 349 347 343 340 333
350 345 347 351 352 351 353 355 356 357 357 356 354 353 353 351 351 351 352 351 352 354 353 351 348 346 351 351 351 349 345 343 342 342 339 345 352 352 350 349 347 343 338
349 350 353 350 352 352 349 348 349 351 356 356 354 352 351 352 351 349 351 352 351 350 353 350 349 347 344 345 347 345 342 341 342 342 339 337 338 350 351 351 349 347 343
353 350 351 350 346 345 342 344 346 347 352 353 352 350 350 347 350 350 351 349 348 348 350 349 348 347 344 342 341 338 340 342 348 344 337 339 339 340 343 346 344 348 346
353 350 347 341 341 343 345 346 347 348 350 349 348 344 343 344 350 348 349 348 346 347 348 350 347 346 348 344 340 341 344 344 341 344 342 344 345 347 349 351 350 345 347
349 346 343 340 339 341 343 345 345 344 345 345 344 346 345 348 349 347 345 346 348 347 346 346 345 345 345 344 347 347 343 339 334 335 338 343 347 350 351 351 347 343 348
350 347 345 341 337 338 340 343 344 343 343 341 340 340 341 342 343 346 346 346 346 346 347 348 345 341 337 337 338 339 340 338 336 336 333 333 334 335 339 346 350 348 347
347 345 345 338 336 338 341 342 342 342 341 340 340 339 339 339 341 343 344 345 346 346 343 343 340 338 336 336 337 335 334 334 335 333 338 340 335 338 341 338 339 346 348
343 337 335 338 340 340 341 341 341 340 342 342 341 337 335 335 337 337 338 340 340 339 339 335 334 335 334 330 328 329 329 329 328 336 325 325 326 327 326 333 336 337 337
340 339 338 339 340 339 339 337 336 339 341 341 340 336 333 333 333 333 333 332 331 330 331 331 330 327 324 325 326 326 327 327 326 325 324 323 324 325 325 325 323 320 325
339 340 340 339 338 337 337 337 336 338 337 336 337 333 332 331 333 333 332 330 328 327 325 325 327 327 325 324 323 325 326 326 327 327 327 327 328 327 329 331 328 328 329
340 340 339 337 336 333 331 330 332 333 331 328 327 326 324 322 322 324 324 322 321 318 317 316 317 318 318 322 324 326 328 328 329 328 328 328 329 329 329 330 333 334 332
338 337 336 329 325 324 324 327 329 328 327 325 323 319 319 319 319 320 321 321 321 317 317 318 324 322 320 318 317 320 321 323 325 328 329 326 326 328 329 330 332 331 334
Wind_Speed
13 12 12 11 9 9 9 8 11 8 8 7 8 9 10 11 12 11 10 12 13 12 13 11 9 9 10 13 12 14 15 15 16 16 18 20 20 19 19 17 17 18 19
14 14 13 12 10 8 8 9 10 10 8 7 8 8 9 9 10 12 11 11 13 13 12 12 9 8 8 10 10 12 13 14 15 14 15 17 17 17 18 19 20 20 19
16 16 14 13 11 9 9 12 11 11 10 8 9 8 8 9 9 9 9 8 8 9 10 10 9 8 8 8 9 8 9 11 11 12 12 15 16 18 18 18 19 21 20
18 18 16 16 12 11 8 10 11 10 9 8 8 9 9 10 10 12 10 10 7 8 9 10 10 9 8 8 7 8 8 9 9 10 11 12 13 14 15 16 19 19 20
18 18 16 15 14 11 12 11 11 10 11 9 9 9 11 10 9 8 9 9 11 10 9 9 11 11 9 8 7 6 6 8 9 10 10 11 11 12 14 14 15 16 18
19 17 16 16 14 11 10 11 13 11 11 9 10 9 10 11 12 11 9 10 10 12 13 11 12 12 12 9 8 6 5 6 8 8 9 9 8 9 11 11 12 12 13
20 19 16 16 14 12 12 13 12 9 9 10 9 10 10 12 13 11 10 10 10 10 12 13 12 11 10 12 10 9 6 5 6 8 8 8 7 8 8 9 9 10 11
22 18 20 18 15 11 12 14 12 9 7 7 5 4 4 4 5 7 10 12 12 12 11 12 12 14 13 11 12 11 9 7 7 8 8 8 7 7 7 6 7 8 9
28 27 26 23 20 16 14 14 13 11 11 6 10 6 3 2 4 3 5 8 13 14 13 14 13 12 14 13 13 13 13 11 9 9 9 9 9 8 8 8 7 7 8
29 30 30 26 22 16 17 16 14 14 12 12 7 11 10 4 4 3 3 4 10 14 14 15 15 16 15 13 14 15 14 14 13 12 10 10 10 10 9 9 8 7 7
25 25 23 25 23 20 20 22 19 17 14 14 12 6 6 8 8 7 7 3 4 7 11 15 14 14 15 15 15 15 16 15 14 14 12 10 8 8 9 10 9 7 7
19 22 21 21 22 21 21 21 22 20 19 17 15 13 11 8 8 9 7 9 8 6 6 10 15 14 13 16 19 18 16 16 15 15 15 13 12 11 9 11 8 8 7
18 18 22 20 17 19 18 18 21 23 24 20 20 19 16 17 13 10 10 12 7 6 4 10 11 11 14 15 16 19 18 17 16 16 15 15 14 14 12 11 11 9 8
20 17 18 19 18 16 16 15 16 20 19 22 22 19 21 20 17 15 15 9 5 7 7 8 8 12 12 15 16 16 13 12 13 15 15 16 16 17 16 15 14 13 11
19 20 18 15 14 14 15 14 15 17 18 21 23 22 19 17 16 16 16 15 12 9 8 6 8 12 12 11 12 13 12 7 9 11 10 10 18 19 20 19 18 17 15
23 12 11 15 13 10 9 13 16 18 19 21 21 23 21 16 19 18 18 15 14 13 8 5 3 5 7 11 11 12 11 8 7 12 14 12 13 16 18 21 21 21 19
14 13 7 3 8 13 12 16 21 24 22 23 22 26 22 19 14 11 15 12 13 14 11 10 3 1 4 7 8 12 8 7 7 11 13 13 13 13 15 16 20 23 24
11 13 7 6 12 14 24 22 21 20 19 21 20 18 18 15 13 13 11 11 11 13 12 10 3 2 2 6 5 6 8 5 5 8 12 13 14 15 16 17 21 23 26
19 13 5 11 26 31 27 20 14 12 13 13 12 15 15 12 10 8 7 8 9 10 9 9 6 2 3 2 2 1 3 4 2 4 6 6 9 12 12 12 14 18 23
25 23 22 26 48 29 19 13 10 6 7 9 7 14 14 8 5 5 5 7 10 10 6 7 6 2 2 1 2 3 0 2 4 5 5 5 5 6 6 10 13 16 21
27 28 29 31 35 19 10 6 5 6 7 5 4 2 5 1 3 5 10 10 8 5 5 5 6 5 8 6 8 7 7 8 7 4 4 2 5 4 5 6 8 11 15
24 23 24 17 11 13 10 10 10 8 7 3 4 6 9 9 10 8 10 8 4 2 1 3 3 4 4 6 6 7 9 8 4 4 13 17 14 14 14 11 13 14 13
16 16 19 21 20 16 12 10 9 8 5 5 6 8 9 10 11 12 12 11 8 4 3 2 1 1 2 6 10 9 9 8 8 14 14 11 10 11 11 11 14 17 20
17 17 15 15 15 11 9 11 10 6 5 6 6 7 9 8 9 9 10 10 8 7 5 1 3 2 3 5 7 8 8 9 11 9 6 8 6 11 10 10 13 12 13
16 14 12 12 14 11 12 13 11 9 8 8 8 9 9 9 9 9 8 8 5 4 2 1 1 2 2 1 2 3 5 8 9 7 6 10 7 14 14 13 9 9 6
19 14 16 13 12 17 13 14 14 11 12 11 9 9 7 6 5 6 6 5 3 3 3 3 4 6 6 6 6 6 5 5 7 4 2 8 12 9 7 8 10 15 11
Wind_Direction
253 265 271 283 288 302 301 302 301 284 287 268 252 249 247 250 253 250 252 258 263 261 253 249 248 235 217 221 230 231 230 233 237 233 237 234 234 235 235 238 240 232 226
254 266 275 278 281 285 295 301 291 283 284 276 259 254 253 260 253 251 255 265 257 263 251 240 234 233 224 226 224 229 230 231 238 239 241 234 236 241 240 238 240 236 229
256 264 268 268 273 283 290 294 289 286 278 270 265 254 245 260 264 257 251 252 256 245 218 214 223 226 221 220 217 219 238 224 227 232 231 230 233 237 239 238 237 236 234
258 263 264 267 274 283 277 287 279 281 277 264 260 259 261 270 257 250 249 244 236 218 226 220 223 223 215 213 213 217 219 225 228 231 230 233 236 238 236 237 236 236 238
257 258 260 269 278 277 270 276 278 278 281 267 261 270 266 265 264 252 238 234 232 223 215 229 229 226 220 218 215 214 220 227 225 230 231 230 233 234 235 233 235 234 236
255 251 256 268 273 270 256 264 277 274 269 275 263 264 254 256 261 258 243 237 235 227 226 229 222 225 225 223 224 218 221 221 217 215 221 223 225 226 222 221 226 228 228
253 249 252 266 270 266 251 260 270 266 267 263 270 269 260 254 254 248 236 231 231 222 216 219 214 218 227 225 225 223 220 215 209 206 209 207 202 205 212 214 216 221 227
248 247 255 261 269 268 249 259 258 266 263 243 253 280 280 243 251 244 235 230 223 220 218 219 217 226 218 218 224 222 222 211 216 210 205 206 198 191 195 206 215 216 222
244 249 254 260 267 274 248 249 248 242 268 250 232 254 263 281 327 239 253 233 230 227 226 224 224 222 226 222 224 223 220 217 215 210 202 203 208 211 213 216 229 238 230
246 250 254 255 262 262 254 252 257 255 250 260 255 238 240 281 298 292 238 227 230 238 237 234 230 228 226 221 221 220 218 216 216 219 211 200 210 214 224 235 239 243 237
257 250 244 246 256 264 264 254 256 257 249 253 256 249 236 247 245 253 288 255 255 244 241 235 228 225 224 216 221 223 219 216 215 218 221 214 211 218 226 231 242 248 242
242 241 238 245 255 265 265 259 253 253 253 253 255 248 241 236 233 227 247 284 293 284 251 233 231 235 231 221 224 225 223 211 212 214 220 221 221 227 229 225 234 237 237
237 236 236 242 252 267 272 265 254 251 253 249 253 253 253 247 238 237 257 274 280 283 268 246 233 228 224 218 221 224 213 209 213 214 216 221 226 231 235 237 243 242 239
240 240 235 241 262 267 274 273 267 264 255 251 249 242 248 254 247 242 247 249 271 268 266 242 233 226 214 209 206 205 196 203 218 223 222 225 227 229 232 234 239 241 240
242 247 237 242 252 278 286 283 274 269 260 260 252 252 243 242 245 248 241 241 245 277 278 270 232 223 219 212 202 180 179 205 217 220 226 227 232 233 233 232 236 238 238
240 230 235 244 254 265 294 299 292 285 270 260 255 251 250 248 250 259 249 238 233 250 265 285 252 228 225 217 209 205 205 202 237 247 238 237 241 232 233 234 235 236 236
232 222 225 282 325 320 312 305 294 284 272 265 252 242 238 243 246 252 246 234 227 230 244 260 253 40 258 245 223 218 223 266 277 252 236 249 241 240 241 247 244 237 233
182 182 165 355 338 322 315 304 288 275 269 266 255 239 225 229 230 233 233 234 229 224 236 247 232 94 167 175 205 247 287 276 264 264 246 236 242 251 257 259 248 238 228
178 162 172 334 325 318 315 300 289 286 278 256 235 215 199 189 187 197 204 206 212 209 224 248 250 164 128 162 210 214 205 188 279 312 302 264 246 247 248 257 250 238 231
194 202 218 219 235 273 294 299 297 289 209 153 143 128 122 115 121 155 177 217 219 201 213 243 259 247 85 310 70 82 217 268 317 292 306 283 264 263 264 255 249 238 236
203 216 215 207 219 223 237 230 249 217 216 212 182 112 96 171 195 170 163 186 194 187 220 239 286 316 6 349 13 2 339 337 322 336 341 313 305 301 271 283 279 258 252
188 188 194 211 204 165 193 217 217 246 259 218 138 117 108 125 122 121 122 119 120 163 215 282 311 341 350 43 37 3 345 344 344 39 344 314 312 297 288 276 263 267 265
183 193 199 196 191 184 175 212 226 237 220 154 134 118 112 122 125 124 121 121 121 105 109 243 211 31 354 345 344 342 333 316 318 302 320 305 306 294 294 289 282 273 265
196 198 197 203 179 181 173 204 202 194 166 144 141 126 118 115 119 126 126 123 122 131 123 66 31 18 332 316 312 302 303 306 305 306 286 272 290 300 303 297 300 291 283
196 197 183 201 174 146 160 176 160 156 144 123 113 102 107 111 120 125 123 113 110 95 71 313 262 271 273 327 18 13 348 337 339 339 340 309 330 325 310 296 289 326 304
193 164 171 171 158 144 163 161 155 153 141 128 118 111 115 120 127 111 107 97 98 90 75 74 78 97 108 92 73 57 19 350 336 307 17 331 323 345 322 294 321 324 324